Location: Zlin
(49.2330°N, 17.6670°E)
Time: 18:43:20
(UTC+02:00)

ISS - Visible Passes

Search period start: 13 May 2025 00:00
Search period end: 23 May 2025 00:00
Orbit: 416 x 420 km, 51.6° (Epoch: 13 May)

Date Brightness Start Highest point End Pass type
(mag) Time Alt. Az. Time Alt. Az. Time Alt. Az.
13 May -2.3 00:40:05 10° WNW 00:42:02 32° WNW 00:42:02 32° WNW visible
13 May -3.3 22:15:08 10° W 22:18:28 63° N 22:21:49 10° ENE visible
13 May -3.3 23:52:09 10° WNW 23:55:30 61° N 23:55:47 57° NE visible
14 May -3.6 21:27:08 10° WSW 21:30:30 76° NNW 21:33:51 10° ENE visible
14 May -3.1 23:04:11 10° WNW 23:07:30 55° N 23:09:26 22° ENE visible
15 May -1.8 00:41:01 10° WNW 00:42:22 22° WNW 00:42:22 22° WNW visible
15 May -3.0 22:16:10 10° W 22:19:28 54° N 22:22:47 10° ENE visible
15 May -3.5 23:53:03 10° WNW 23:55:59 65° WNW 23:55:59 65° WNW visible
16 May -3.1 21:28:07 10° W 21:31:27 57° N 21:34:46 10° ENE visible
16 May -3.6 23:05:05 10° WNW 23:08:27 71° NNE 23:09:36 37° E visible
17 May -1.2 00:42:01 10° W 00:42:30 13° W 00:42:30 13° W visible
17 May -3.3 22:17:05 10° WNW 22:20:25 60° N 22:23:12 14° E visible
17 May -2.6 23:53:56 10° WNW 23:56:05 33° W 23:56:05 33° W visible
18 May -3.1 21:29:03 10° WNW 21:32:22 55° N 21:35:41 10° E visible
18 May -3.9 23:05:53 10° WNW 23:09:15 70° SSW 23:09:42 59° SSE visible
19 May -3.8 22:17:52 10° WNW 22:21:14 87° NNE 22:23:16 22° ESE visible
19 May -1.6 23:54:58 10° W 23:56:12 17° WSW 23:56:12 17° WSW visible
20 May -3.5 21:29:49 10° WNW 21:33:12 70° NNE 21:36:32 10° E visible
20 May -2.9 23:06:44 10° W 23:09:47 35° SW 23:09:47 35° SW visible
21 May -3.5 22:18:35 10° WNW 22:21:52 51° SSW 22:23:24 27° SE visible
22 May -3.7 21:30:29 10° WNW 21:33:51 72° SSW 21:37:01 11° ESE visible
22 May -1.7 23:07:58 10° W 23:09:55 16° SW 23:09:55 16° SW visible
